Location: Newark
(36.0797°N, 3.9744°E)
Time: 05:04:46
(UTC+00:00)

Tiros 1 - Pass Details

Date: 10 December 2019
Orbit: 630 x 664 km, 48.4° (Epoch: 20 January)

Event Time Altitude Azimuth Distance (km) Brightness Sun altitude
Exits shadow 05:39:49 - 237° (WSW) 2,548 9.8 -12.6°
Reaches altitude 10° 05:41:07 10° 238° (WSW) 2,044 9.4 -12.4°
Maximum altitude 05:45:50 77° 324° (NW) 663 7.1 -11.5°
Drops below altitude 10° 05:50:31 10° 52° (NE) 2,030 10.1 -10.6°
Sets 05:52:50 0° 53° (NE) 2,936 11.0 -10.2°
